Regional Weather Roundup
Issued by NWS

Home | Current Version | Previous Version | Graphics & Text | Print | Product List | Glossary On
Versions: 1 2 3 4 5 6 7 8 9 10 11 12 13 14 15 16 17 18 19 20 21 22 23 24 25 26 27 28 29 30 31 32 33 34 35 36 37 38 39 40 41 42 43 44 45 46 47 48 49 50
000
ASUS43 KMPX 291701
RWRMN
WEATHER ROUNDUP FOR MINNESOTA
NATIONAL WEATHER SERVICE TWIN CITIES/CHANHASSEN MN
1200 PM CDT WED JUL 29 2015


NOTE: "FAIR" INDICATES FEW OR NO CLOUDS BELOW 12,000 FEET WITH NO
SIGNIFICANT WEATHER AND/OR OBSTRUCTIONS TO VISIBILITY. N/A MEANS
CURRENT SKY AND/OR WEATHER CONDITIONS ARE NOT AVAILABLE.

MNZ060>063-068>070-291800-
   Twin Cities Metro

CITY           SKY/WX    TMP DP  RH WIND       PRES   REMARKS
TWIN CITIES    SUNNY     78  52  40 W25G39    29.94S
ST PAUL        SUNNY     77  53  43 W15G29    29.94R
CRYSTAL        SUNNY     78  53  41 W24G32    29.93R
BLAINE         SUNNY     77  54  44 W16G30    29.93
LAKEVILLE      SUNNY     75  55  50 W18G28    29.98R
EDEN PRAIRIE   SUNNY     77  54  44 W20G30    29.95R
SOUTH ST PAUL  SUNNY     78  51  39 W20G29    29.95R
LAKE ELMO      FAIR      75  54  46 W22G32    29.95R
$$
MNZ001>005-007-008-013>017-022>024-027-028-291800-
   Northwest Minnesota

CITY           SKY/WX    TMP DP  RH WIND       PRES   REMARKS
BEMIDJI        CLOUDY    65  55  69 W21G31    29.76R
HALLOCK        MOSUNNY   73  54  49 W35G43    29.68R
ROSEAU         CLOUDY    66  57  72 W15G24    29.65R
WARROAD        CLOUDY    63  59  88 W20G31    29.63R
THIEF RVR FALL CLOUDY    70  55  60 W15G26    29.74R
CROOKSTON      MOSUNNY   75  54  46 W32G39    29.77R
FOSSTON        PTSUNNY   70  55  60 W22G35    29.78R
DETROIT LAKES  SUNNY     73  54  49 W23G32    29.87R
MOORHEAD       SUNNY     75  55  50 W23G31    29.87R
PARK RAPIDS    SUNNY     76  53  44 W28G43    29.82R
MAHNOMEN       FAIR      73  56  57 W16G32    29.82R
$$
MNZ006-009>011-018-025>026-291800-
   North Central Minnesota

CITY           SKY/WX    TMP DP  RH WIND       PRES   REMARKS
BAUDETTE       CLOUDY    64  57  78 W16G26    29.62R
FLAG ISLAND    CLOUDY    64  57  77 W23G32    29.54R
INTL FALLS     LGT RAIN  62  59  90 W15G24    29.61R
WASKISH        CLOUDY    64  59  82 SW26G40   29.69R
BIG FORK       LGT RAIN  63  57  82 SW15G21   29.71R
LONGVILLE      MOSUNNY   72  55  56 W18G25    29.79S
GRAND RAPIDS   CLOUDY    64  54  68 W14       29.77R
CRANE LAKE     CLOUDY    63  55  77 SW8       29.65R
ORR            CLOUDY    63  55  77 SW8G17    29.65R HAZE
COOK           CLOUDY    66  55  68 W20G31    29.69R
WALKER         PTSUNNY   69  55  60 W17G32    29.77S
$$
MNZ012-019>021-037-291800-
   Northeast Minnesota

CITY           SKY/WX    TMP DP  RH WIND       PRES   REMARKS
DULUTH         CLOUDY    67  53  61 W21G26    29.76R
ELY            CLOUDY    64  54  68 W15G26    29.67R
HIBBING        CLOUDY    66  55  67 W14G28    29.73R
EVELETH        PTSUNNY   64  52  63 SW15G29   29.73R
DULUTH HARBOR  CLOUDY    70  55  60 SW22G30   29.76R
TWO HARBORS    CLOUDY    70  57  64 W15G28    29.72R
SILVER BAY     CLOUDY    68  54  60 SW7       29.70R
GRAND MARAIS     N/A     58  51  78 W8        29.65R
G MARAIS ARPRT   N/A     64  50  59 SW13G25   29.67S
$$
MNZ029>031-032-039>041-046>048-054>057-064-291800-
   West Central Minnesota

CITY           SKY/WX    TMP DP  RH WIND       PRES   REMARKS
FERGUS FALLS   SUNNY     75  55  50 W24G31    29.90S
WHEATON        SUNNY     73  55  53 W14G26    29.97S
MORRIS         SUNNY     75  55  50 W22G30    29.95R
ALEXANDRIA     SUNNY     75  54  47 W26G39    29.94R
ELBOW LAKE     FAIR      74  56  54 W28G38    29.93S
WADENA         SUNNY     73  54  49 W20G35    29.87R
GLENWOOD       SUNNY     75  54  46 W23G31    29.94S
APPLETON       SUNNY     79  54  41 W21       29.97S
BENSON         SUNNY     77  52  41 NW21G30   29.96S
ORTONVILLE     SUNNY     75  52  43 W17G29    29.98S
MADISON        SUNNY     77  52  41 W18G26    30.01R
WILLMAR        FAIR      75  57  53 W18G29    29.99R
$$
MNZ033>034-036-042>043-049>051-058-059-291800-
   Central Minnesota

CITY           SKY/WX    TMP DP  RH WIND       PRES   REMARKS
ST CLOUD       SUNNY     77  53  43 W24G37    29.91R
SAUK CENTRE    FAIR      74  54  49 W22G39    29.92S
PAYNESVILLE    SUNNY     74  52  45 SW21G32   29.95R
AITKIN         MOSUNNY   73  55  53 W12G26    29.80S
PINE RIVER     MOSUNNY   73  55  53 W17G31    29.85R
BRAINERD       MOSUNNY   73  54  51 W18G33    29.84R
STAPLES        SUNNY     73  52  46 W26G37    29.86S
LONG PRAIRIE   FAIR      73  54  49 W18G28    29.92R
LITTLE FALLS   SUNNY     73  48  40 W28G33    29.88S
LITCHFIELD     SUNNY     75  55  50 W17G28    29.97S
BUFFALO        SUNNY     76  53  44 W17G29    29.95S
MAPLE LAKE     SUNNY     75  55  50 W16G30    29.95R
$$
MNZ037-044-045-052-053-291800-
   East Central Minnesota

CITY           SKY/WX    TMP DP  RH WIND       PRES   REMARKS
PRINCETON      SUNNY     77  55  47 W22G31    29.89S
MORA           MOSUNNY   73  54  49 W23G36    29.87S
CAMBRIDGE      SUNNY     79  57  47 W15G25    29.88R
RUSH CITY      MOSUNNY   75  55  50 W17G29    29.88S
MOOSE LAKE     CLOUDY    68  54  60 W14G23    29.81R
HINCKLEY       CLOUDY    72  55  56 W15G35    29.85S
CLOQUET        CLOUDY    66  52  59 W17G28    29.78S
MCGREGOR       PTSUNNY   70  54  56 W15G28    29.81S
$$
MNZ071>073-080-081-089-090-097-098-291800-
   Southwest Minnesota

CITY           SKY/WX    TMP DP  RH WIND       PRES   REMARKS
MONTEVIDEO     SUNNY     79  55  44 NW16G23   30.01S
GRANITE FALLS  SUNNY     76  56  48 W20G26    30.03S
CANBY          SUNNY     76  50  39 W22G30    30.05R
MARSHALL       SUNNY     77  52  41 W25G31    30.06R
REDWOOD FALLS  SUNNY     78  53  41 W23G30    30.01R
OLIVIA         SUNNY     72  52  49 W18G29    30.00R
PIPESTONE      SUNNY     73  55  53 W14G23    30.12R
WINDOM         SUNNY     77  55  47 W16G24    30.09R
WORTHINGTON    SUNNY     75  55  50 W16G23    30.12S
JACKSON        SUNNY     77  55  47 W17G25    30.11S
TRACY          SUNNY     77  55  47 W12G21    30.07R
SLAYTON        SUNNY     75  53  47 W21G26    30.11R
$$
MNZ065>067-074>077-082>085-091>093-291800-
   South Central Minnesota

CITY           SKY/WX    TMP DP  RH WIND       PRES   REMARKS
MANKATO        SUNNY     77  55  47 W21       30.03S
NEW ULM        SUNNY     77  54  44 W15G23    30.03R
ST JAMES       SUNNY     81  55  41 SW16G24   30.07R
FAIRMONT       SUNNY     77  54  44 W18       30.07F
GLENCOE        SUNNY     77  58  52 W13G23    29.98S
FARIBAULT      SUNNY     75  55  50 W17G28    30.02R
OWATONNA       SUNNY     77  55  47 W21G28    30.02S
WASECA         SUNNY     77  59  53 W17G23    30.05S
ALBERT LEA     SUNNY     77  55  47 W13G22    30.05R
$$
MNZ078>079-086>088-094>096-291800-
   Southeast Minnesota

CITY           SKY/WX    TMP DP  RH WIND       PRES   REMARKS
ROCHESTER      SUNNY     75  57  53 W23G36    30.01F
RED WING       SUNNY     81  50  34 W21G30    29.94S
STANTON        SUNNY     78  53  41 W20G28    29.98S
DODGE CENTER   SUNNY     75  54  46 W21G29    30.02S
WINONA         SUNNY     79  52  38 W9G18     29.97R
AUSTIN         SUNNY     79  52  38 W18G29    30.04S
PRESTON        SUNNY     75  51  43 W25G36    30.03S
$$
ABBREVIATIONS USED IN REMARKS
   TC - TEMPERATURES IN CELSIUS
  WCI - WIND CHILL INDEX
   HX - HEAT INDEX
  VSB - VISIBILITY
$$


USA.gov is the U.S. government's official web portal to all federal, state and local government web resources and services.